Weather History for Broomfield, CO

Change the Weather History Date:

Saturday, January 4, 2014

  Actual Average Record
Temperature  
Mean Temperature 27 °F -  
Max Temperature 44 °F 45 °F 66 °F (2001)
Min Temperature 8 °F 24 °F 3 °F (1993)
Degree Days  
Heating Degree Days 38    
Moisture  
Dew Point 18 °F    
Average Humidity 83    
Maximum Humidity 93    
Minimum Humidity 31    
Precipitation  
Precipitation 0.00 in - - ()
Sea Level Pressure  
Sea Level Pressure 29.89 in    
Wind  
Wind Speed 9 mph (NNE)    
Max Wind Speed 17 mph    
Max Gust Speed 32 mph    
Visibility 6 miles    
Events Fog , Snow    
Averages and records for this station are not official NWS values.
T = Trace of Precipitation, MM = Missing Value Source: NWS Daily Summary

Daily Weather History Graph

Daily Weather History Graph

Search for Another Location

Airport:

Trip Planner

Search our weather history database for the weather conditions in past years. The results will help you decide how hot, cold, wet, or windy it might be!

Date:

Astronomy

Jan. 04, 2014 Rise Set
Actual Time 7:22 AM MST 4:48 PM MST
Civil Twilight 6:51 AM MST 5:19 PM MST
Nautical Twilight 6:18 AM MST 5:52 PM MST
Astronomical Twilight 5:45 AM MST 6:25 PM MST
Moon 9:29 AM MST (1/4) 9:11 PM MST (1/4)
Length of Visible Light 10h 27m
Length of Day
9h 26m
Waxing Crescent, 16% of the Moon is Illuminated
Jan 4
Waxing Crescent
Jan 7
First Quarter
Jan 15
Full
Jan 23
Last Quarter
Jan 30
New

Hourly Weather History & Observations

Time (MST) Temp. Windchill Dew Point Humidity Pressure Visibility Wind Dir Wind Speed Gust Speed Precip Events Conditions
12:15 AM 42.8 °F 36.6 °F 17.6 °F 36% 29.66 in 10.0 mi North 11.5 mph - N/A   Clear
12:35 AM 41.0 °F 34.7 °F 17.6 °F 39% 29.67 in 10.0 mi East 10.4 mph - N/A   Clear
12:55 AM 35.6 °F 25.5 °F 24.8 °F 65% 29.69 in 10.0 mi ENE 17.3 mph 28.8 mph N/A   Clear
1:15 AM 32.0 °F 21.6 °F 28.4 °F 87% 29.73 in 10.0 mi ENE 15.0 mph 32.2 mph N/A   Scattered Clouds
1:35 AM 30.2 °F 20.8 °F 26.6 °F 86% 29.76 in 10.0 mi ENE 11.5 mph - N/A   Overcast
1:55 AM 30.2 °F 23.4 °F 26.6 °F 86% 29.79 in 10.0 mi East 6.9 mph - N/A   Overcast
2:15 AM 30.2 °F 21.9 °F 23.0 °F 75% 29.80 in 10.0 mi East 9.2 mph - N/A   Overcast
2:35 AM 30.2 °F 22.6 °F 23.0 °F 75% 29.81 in 10.0 mi East 8.1 mph - N/A   Overcast
2:55 AM 30.2 °F 23.4 °F 23.0 °F 75% 29.81 in 10.0 mi East 6.9 mph - N/A   Overcast
3:15 AM 28.4 °F 19.7 °F 24.8 °F 86% 29.81 in 1.8 mi East 9.2 mph - N/A Snow Light Snow
3:35 AM 28.4 °F 21.2 °F 24.8 °F 86% 29.81 in 1.5 mi East 6.9 mph - N/A Snow Light Snow
3:55 AM 26.6 °F 16.8 °F 24.8 °F 93% 29.81 in 1.0 mi ENE 10.4 mph - N/A Snow Light Snow
4:15 AM 26.6 °F 16.8 °F 23.0 °F 86% 29.82 in 1.0 mi NNE 10.4 mph - N/A Snow Light Snow
4:35 AM 24.8 °F 14.6 °F 23.0 °F 93% 29.85 in 1.0 mi North 10.4 mph - N/A Snow Snow
4:55 AM 24.8 °F 15.3 °F 23.0 °F 93% 29.84 in 0.8 mi North 9.2 mph - N/A Snow Snow
5:50 AM 23.0 °F 10.6 °F 21.2 °F 93% 29.88 in 0.5 mi North 13.8 mph - N/A Snow Snow
6:45 AM 21.2 °F 12.6 °F 19.4 °F 93% 29.86 in 3.0 mi NNW 6.9 mph - N/A Snow Light Snow
7:45 AM 21.2 °F 14.9 °F 19.4 °F 93% 29.89 in 1.0 mi North 4.6 mph - N/A Snow Light Snow
8:55 AM 21.2 °F 14.9 °F 19.4 °F 93% 29.90 in 2.0 mi Variable 4.6 mph - N/A Snow Light Snow
9:48 AM 23.0 °F 15.8 °F 19.4 °F 86% 29.91 in 2.0 mi NNE 5.8 mph - N/A Snow Light Snow
10:50 AM 21.2 °F 10.9 °F 19.4 °F 93% 29.91 in 2.0 mi NNE 9.2 mph - N/A Snow Light Snow
11:55 AM 21.2 °F 11.7 °F 19.4 °F 93% 29.88 in 0.8 mi NE 8.1 mph - N/A Snow Light Snow
12:52 PM 21.2 °F 8.9 °F 17.6 °F 86% 29.88 in 1.0 mi NNE 12.7 mph - N/A Snow Light Snow
1:52 PM 21.2 °F 9.5 °F 17.6 °F 86% 29.91 in 0.5 mi NNE 11.5 mph - N/A Snow Light Snow
2:50 PM 21.2 °F 9.5 °F 17.6 °F 86% 29.93 in 1.0 mi North 11.5 mph - N/A Snow Light Snow
3:45 PM 19.4 °F 7.9 °F 17.6 °F 93% 29.97 in 1.0 mi North 10.4 mph - N/A Snow Light Snow
4:45 PM 44.6 °F 38.8 °F 15.8 °F 31% 29.98 in 1.0 mi North 11.5 mph - N/A   Unknown
5:47 PM 17.6 °F 9.3 °F 15.8 °F 93% 30.00 in 2.0 mi North 5.8 mph - N/A Snow Light Snow
6:47 PM 17.6 °F 10.7 °F 15.8 °F 93% 30.02 in 3.0 mi NW 4.6 mph - N/A Snow Light Snow
7:47 PM 15.8 °F - 14.0 °F 93% 30.02 in 15.0 mi Calm Calm - N/A Fog Mostly Cloudy
8:47 PM 12.2 °F 6.1 °F 8.6 °F 85% 30.02 in 13.0 mi West 3.5 mph - N/A Fog Mostly Cloudy
9:47 PM 10.4 °F 2.2 °F 8.6 °F 92% 30.01 in 10.0 mi SW 4.6 mph - N/A Fog Mostly Cloudy
10:15 PM 10.4 °F - 8.6 °F 92% 30.01 in 10.0 mi Calm Calm - N/A   Clear
10:35 PM 12.2 °F 6.1 °F 10.4 °F 92% 30.02 in 10.0 mi WSW 3.5 mph - N/A   Clear
10:55 PM 10.4 °F 4.0 °F 6.8 °F 85% 30.01 in 10.0 mi SW 3.5 mph - N/A   Clear
11:15 PM 12.2 °F 6.1 °F 8.6 °F 85% 30.00 in 10.0 mi SW 3.5 mph - N/A   Clear
11:34 PM 10.4 °F 2.2 °F 5.0 °F 79% 30.00 in 10.0 mi WSW 4.6 mph - N/A   Clear
11:55 PM 8.6 °F -2.6 °F 5.0 °F 85% 29.99 in 10.0 mi WSW 6.9 mph - N/A   Clear